Location: Esp�n
(42.4593°N, 0.2047°W)
Time: 04:12:58
(UTC+00:00)

CZ-2D R/B - Pass Details

Date: 07 June 2020
Orbit: 791 x 846 km, 98.7° (Epoch: 04 July)

Event Time Altitude Azimuth Distance (km) Brightness Sun altitude
Rises 00:26:57 0° 30° (NNE) 3,301 6.4 -24.5°
Reaches altitude 10° 00:30:02 10° 49° (NE) 2,364 5.1 -24.4°
Maximum altitude 00:33:33 18° 92° (E) 1,853 4.0 -24.3°
Enters shadow 00:35:02 16° 113° (ESE) 1,952 3.9 -24.3°
